Location: Newark
(47.1000°N, 5.3000°E)
Time: 08:16:20
(UTC+00:00)

KKS-1 - Visible Passes

Search period start: 13 December 2019 00:00
Search period end: 23 December 2019 00:00
Orbit: 637 x 650 km, 98.3° (Epoch: 13 December)

Date Brightness Start Highest point End Pass type
(mag) Time Alt. Az. Time Alt. Az. Time Alt. Az.
13 Dec ? 05:22:33 10° ESE 05:26:15 27° ENE 05:29:58 10° N visible
14 Dec ? 05:46:25 10° SE 05:50:36 44° ENE 05:54:50 10° N visible
15 Dec ? 04:38:20 10° ENE 04:39:18 11° NE 04:40:16 10° NE visible
15 Dec ? 06:10:38 10° SSE 06:15:03 77° ENE 06:19:30 10° N visible
16 Dec ? 05:00:38 10° E 05:03:30 17° ENE 05:06:22 10° NNE visible
16 Dec ? 06:35:12 10° S 06:39:34 61° WSW 06:44:00 10° NNW visible
17 Dec ? 05:24:03 10° ESE 05:27:46 27° ENE 05:31:31 10° N visible
18 Dec ? 05:47:56 10° SE 05:52:08 45° ENE 05:56:23 10° N visible
19 Dec ? 04:39:43 10° ENE 04:40:49 11° NE 04:41:56 10° NE visible
19 Dec ? 06:12:10 10° SSE 06:16:34 78° ENE 06:21:02 10° NNW visible
20 Dec ? 05:02:06 10° ESE 05:05:01 17° ENE 05:07:57 10° NNE visible
20 Dec ? 06:36:45 10° S 06:41:07 60° WSW 06:45:31 10° NNW visible
21 Dec ? 05:25:33 10° ESE 05:29:18 28° ENE 05:33:05 10° N visible
22 Dec ? 05:49:26 10° SE 05:53:40 46° ENE 05:57:56 10° N visible
